Home > Weather > Uluru > Past weeks

Flag for Australia Past Weather in Uluru, Northern Territory, Australia — Yesterday and Last 2 Weeks

Now
52 °F

Passing clouds.


Feels Like: 51 °F
Forecast: 47 / 71 °F
Wind: 5 mph from South

Location: Ayers Rock

Current Time: Jun 30, 2016 at 1:52:21 AM

Latest Report: Jun 30, 2016 at 1:30 AM


Visibility: N/A

Pressure: 30.15 "Hg (27.20 "Hg at 857m altitude)

Humidity: 82%

Dew Point: 46 °F

Location of UluruLocation

Past Weather in Uluru — Graph

°F

Uluru Temperature Yesterday

Maximum temperature yesterday: 70 °F (at 3:30 PM)
Minimum temperature yesterday: 37 °F (at 6:30 AM)
Average temperature yesterday: 54 °F

High & Low Weather Summary for the Past Weeks

 TemperatureHumidityPressure
High77 °F (Jun 15, 2:30 PM)100% (Jun 15, 6:30 AM)30.30 "Hg (Jun 15, 6:30 AM)
Low37 °F (Jun 20, 5:30 AM)21% (Jun 20, 3:30 PM)29.89 "Hg (Jun 21, 2:30 PM)
Average55 °F71%30.08 "Hg
* Reported Jun 15 12:30 AM — Jun 30 12:30 AM, Uluru, Weather by CustomWeather, © 2016

Note: Actual official high and low records may vary slightly from our data, if they occured in-between our weather recording intervals... More about our weather records

Advertising

Uluru Weather History for the Previous 24 Hours

Scroll right to see more
 ConditionsComfort  
Time TempWeatherWind HumidityBarometerVisibility
12:30 AM
Thu, Jun 30
52 °FPassing clouds.No wind88%30.15 "HgN/A
11:30 PM
Wed, Jun 29
54 °FPassing clouds.No wind82%30.15 "HgN/A
10:30 PM55 °FPassing clouds.No wind77%30.15 "HgN/A
9:30 PM59 °FOvercast.No wind72%30.15 "HgN/A
8:30 PM63 °FOvercast.No wind59%30.15 "HgN/A
7:30 PM61 °FOvercast.No wind55%30.12 "HgN/A
6:30 PM63 °FPassing clouds.3 mph52%30.12 "HgN/A
5:30 PM68 °FSunny.7 mph35%30.09 "HgN/A
4:30 PM70 °FSunny.6 mph33%30.09 "HgN/A
3:30 PM70 °FSunny.7 mph31%30.09 "HgN/A
2:30 PM68 °FSunny.6 mph33%30.12 "HgN/A
1:30 PM64 °FSunny.3 mph40%30.15 "HgN/A
12:30 PM63 °FSunny.6 mph37%30.18 "HgN/A
11:30 AM59 °FSunny.1 mph45%30.21 "HgN/A
10:30 AM55 °FSunny.5 mph63%30.21 "HgN/A
9:30 AM48 °FSunny.5 mph76%30.21 "HgN/A
8:30 AM43 °FSunny.5 mph93%30.21 "HgN/A
7:30 AM37 °FSunny.6 mph100%30.21 "HgN/A
6:30 AM37 °FClear.8 mph100%30.18 "HgN/A
5:30 AM39 °FClear.7 mph93%30.15 "HgN/A
4:30 AM41 °FClear.3 mph93%30.15 "HgN/A
3:30 AM41 °FClear.3 mph93%30.18 "HgN/A
2:30 AM41 °FClear.5 mph93%30.18 "HgN/A
1:30 AM43 °FClear.1 mph93%30.18 "HgN/A
Weather by CustomWeather, © 2016

See weather overviewHow to use our weather pages